This is the latest recevied weather packets stored in our database for station/object K1PM-WX. If no packets are shown the sender has not sent any weather packets the latest 10 day(s).
| Time | Temp. | Humidity | Pressure | Rain* | Wind** | Luminosity | Snow |
|---|---|---|---|---|---|---|---|
| 1777835036 | 11.67° C | 52% | 1034 hPa | 0.51 mm | - | - | - |
| 1777834736 | 11.67° C | 51% | 1034 hPa | 0.25 mm | - | - | - |
| 1777834438 | 11.67° C | 50% | 1034 hPa | 2.03 mm | - | - | - |
| 1777834136 | 12.22° C | 49% | 1034 hPa | 2.03 mm | - | - | - |
| 1777833836 | 11.67° C | 49% | 1034 hPa | 2.03 mm | - | - | - |
| 1777833536 | 11.67° C | 47% | 1034 hPa | 1.78 mm | - | - | - |
| 1777833236 | 12.78° C | 46% | 1034 hPa | 1.78 mm | - | - | - |
| 1777832937 | 12.22° C | 46% | 1034 hPa | 1.78 mm | - | - | - |
| 1777832636 | 11.67° C | 45% | 1034 hPa | 1.78 mm | - | - | - |
| 1777832336 | 11.67° C | 44% | 1035 hPa | 1.78 mm | - | - | - |
| 1777832036 | 11.67° C | 44% | 1035 hPa | 1.78 mm | - | - | - |
| 1777831737 | 12.22° C | 44% | 1035 hPa | 1.78 mm | - | - | - |
| 1777831436 | 12.78° C | 45% | 1035 hPa | 1.78 mm | - | - | - |
| 1777831136 | 12.78° C | 46% | 1035 hPa | 0 mm | - | - | - |
| 1777830836 | 11.67° C | 46% | 1035 hPa | 0 mm | - | - | - |
| 1777830536 | 11.67° C | 47% | 1035 hPa | 0 mm | - | - | - |
| 1777830237 | 12.22° C | 50% | 1035 hPa | 0 mm | - | - | - |
| 1777829936 | 11.67° C | 53% | 1035 hPa | 0 mm | - | - | - |
| 1777829636 | 10.56° C | 57% | 1035 hPa | 0 mm | - | - | - |
| 1777829337 | 10.56° C | 59% | 1035 hPa | 0 mm | - | - | - |
| 1777829036 | 10° C | 61% | 1035 hPa | 0 mm | - | - | - |
| 1777828736 | 10° C | 64% | 1036 hPa | 0 mm | - | - | - |
| 1777828437 | 10° C | 65% | 1036 hPa | 0 mm | - | - | - |
| 1777828137 | 10.56° C | 66% | 1036 hPa | 0 mm | - | - | - |
| 1777827836 | 10° C | 67% | 1036 hPa | 0 mm | - | - | - |
* Rain latest hour (hover to see other rain measurements)
** Current wind speed in m/s (hover to see current wind gust speed)